Weather History for KMWK - February, 2013

Change the Weather History Date:

Friday, February 22, 2013

  Actual Average (KINT) Record (KINT)
Temperature  
Mean Temperature 38 °F -  
Max Temperature 43 °F 51 °F 70 °F (1986)
Min Temperature 33 °F 33 °F 3 °F (1968)
Degree Days  
Heating Degree Days 27    
Moisture  
Dew Point 31 °F    
Average Humidity 84    
Maximum Humidity 91    
Minimum Humidity 34    
Precipitation  
Precipitation 0.16 in - - ()
Sea Level Pressure  
Sea Level Pressure 30.21 in    
Wind  
Wind Speed 4 mph (East)    
Max Wind Speed 13 mph    
Max Gust Speed 17 mph    
Visibility 6 miles    
Events Rain , Snow    
Averages and records for this station are not official NWS values.
T = Trace of Precipitation, MM = Missing Value Source: NWS Daily Summary

Daily Weather History Graph

Daily Weather History Graph

Search for Another Location

Airport or City:

Trip Planner

Search our weather history database for the weather conditions in past years. The results will help you decide how hot, cold, wet, or windy it might be!

Date:

Astronomy

Feb. 22, 2013 Rise Set
Actual Time 7:01 AM EST 6:10 PM EST
Civil Twilight 6:35 AM EST 6:36 PM EST
Nautical Twilight 6:05 AM EST 7:06 PM EST
Astronomical Twilight 5:35 AM EST 7:36 PM EST
Moon 3:23 PM EST (2/22) 4:42 AM EST (2/22)
Length of Visible Light 12h 01m
Length of Day
11h 08m
Waxing Gibbous, 90% of the Moon is Illuminated
Feb 22
Waxing Gibbous
Feb 25
Full
Mar 4
Last Quarter
Mar 11
New
Mar 19
First Quarter

Hourly Weather History & Observations

Time (EST) Temp. Windchill Dew Point Humidity Pressure Visibility Wind Dir Wind Speed Gust Speed Precip Events Conditions
12:15 AM 43.7 °F 41.1 °F 16.5 °F 34% 30.25 in 10.0 mi ESE 4.6 mph - N/A   Overcast
12:35 AM 42.8 °F 39.3 °F 18.0 °F 37% 30.27 in 7.0 mi ESE 5.8 mph - N/A   Unknown
12:55 AM 41.4 °F 36.8 °F 17.8 °F 39% 30.28 in 7.0 mi ESE 6.9 mph - N/A   Unknown
1:15 AM 37.6 °F 33.1 °F 22.6 °F 55% 30.29 in 5.0 mi ESE 5.8 mph - 0.01 in Rain Light Rain
1:35 AM 36.7 °F 32.9 °F 27.0 °F 68% 30.29 in 10.0 mi ESE 4.6 mph - 0.02 in Snow Light Snow
1:55 AM 35.6 °F - 26.4 °F 69% 30.29 in 4.0 mi Calm Calm - 0.02 in Snow Light Snow
2:15 AM 35.1 °F - 27.1 °F 73% 30.28 in 4.0 mi Calm Calm - 0.02 in Snow Light Snow
2:35 AM 34.7 °F - 25.7 °F 70% 30.28 in 2.0 mi Calm Calm - 0.02 in Snow Light Snow
2:55 AM 34.3 °F 31.4 °F 27.3 °F 76% 30.27 in 2.5 mi NNE 3.5 mph - 0.02 in Snow Light Snow
3:15 AM 34.3 °F 29.2 °F 28.4 °F 79% 30.25 in 2.0 mi ENE 5.8 mph - N/A Snow Light Snow
3:35 AM 34.3 °F 25.5 °F 30.9 °F 87% 30.20 in 3.0 mi East 12.7 mph 17.3 mph 0.02 in Snow Light Snow
3:55 AM 33.8 °F 29.6 °F 31.1 °F 90% 30.21 in 10.0 mi East 4.6 mph - 0.06 in   Overcast
4:35 AM 33.6 °F 29.4 °F 30.2 °F 87% 30.22 in 10.0 mi ESE 4.6 mph - 0.03 in   Overcast
4:55 AM 33.8 °F 29.6 °F 30.9 °F 89% 30.23 in 10.0 mi East 4.6 mph - 0.03 in   Overcast
5:15 AM 33.8 °F 28.6 °F 31.1 °F 90% 30.21 in 10.0 mi ENE 5.8 mph - 0.01 in   Overcast
5:35 AM 33.8 °F 29.6 °F 30.9 °F 89% 30.22 in 10.0 mi East 4.6 mph - 0.01 in   Overcast
6:15 AM 33.8 °F 30.8 °F 30.9 °F 89% 30.23 in 10.0 mi East 3.5 mph - 0.01 in   Overcast
7:35 AM 33.4 °F 29.1 °F 30.7 °F 90% 30.25 in 7.0 mi East 4.6 mph - N/A   Overcast
7:55 AM 33.4 °F 30.4 °F 30.7 °F 90% 30.27 in 5.0 mi East 3.5 mph - N/A   Overcast
8:15 AM 33.3 °F 28.9 °F 30.7 °F 90% 30.27 in 7.0 mi East 4.6 mph - N/A   Overcast
8:35 AM 33.3 °F 28.9 °F 30.7 °F 90% 30.27 in 5.0 mi East 4.6 mph - N/A   Overcast
8:55 AM 33.3 °F 28.9 °F 30.7 °F 90% 30.27 in 4.0 mi East 4.6 mph - N/A   Overcast
9:15 AM 33.4 °F 28.1 °F 30.9 °F 90% 30.25 in 5.0 mi ENE 5.8 mph - N/A   Overcast
9:35 AM 33.4 °F 30.4 °F 31.1 °F 91% 30.24 in 4.0 mi ESE 3.5 mph - N/A   Overcast
9:55 AM 33.4 °F 27.3 °F 30.9 °F 90% 30.24 in 4.0 mi ENE 6.9 mph - N/A   Overcast
10:15 AM 33.4 °F 29.1 °F 30.9 °F 90% 30.25 in 5.0 mi East 4.6 mph - N/A   Overcast
10:35 AM 33.8 °F 30.8 °F 31.1 °F 90% 30.25 in 5.0 mi ENE 3.5 mph - N/A   Overcast
10:55 AM 34.3 °F 31.4 °F 31.5 °F 89% 30.24 in 7.0 mi East 3.5 mph - N/A   Overcast
11:15 AM 35.1 °F - 32.0 °F 89% 30.25 in 10.0 mi Calm Calm - N/A   Overcast
11:35 AM 35.2 °F - 32.0 °F 88% 30.25 in 10.0 mi Calm Calm - N/A   Overcast
11:55 AM 35.6 °F - 32.0 °F 87% 30.24 in 10.0 mi Calm Calm - N/A   Overcast
12:15 PM 35.6 °F 32.8 °F 32.0 °F 87% 30.23 in 10.0 mi East 3.5 mph - N/A   Overcast
12:55 PM 35.6 °F 31.7 °F 32.2 °F 87% 30.20 in 10.0 mi ESE 4.6 mph - N/A   Overcast
1:15 PM 35.6 °F - 32.2 °F 87% 30.21 in 10.0 mi Calm Calm - N/A   Overcast
1:35 PM 36.0 °F - 32.5 °F 87% 30.21 in 7.0 mi Calm Calm - N/A   Overcast
1:55 PM 36.0 °F 33.3 °F 32.5 °F 87% 30.19 in 10.0 mi ENE 3.5 mph - N/A   Overcast
2:15 PM 36.9 °F 33.1 °F 33.3 °F 87% 30.18 in 10.0 mi East 4.6 mph - N/A   Overcast
2:55 PM 36.0 °F - 32.7 °F 88% 30.17 in 5.0 mi Calm Calm - N/A   Overcast
3:15 PM 36.9 °F 34.3 °F 33.4 °F 87% 30.17 in 4.0 mi ENE 3.5 mph - N/A   Overcast
3:35 PM 36.3 °F 32.5 °F 33.1 °F 88% 30.17 in 3.0 mi ESE 4.6 mph - N/A   Overcast
4:15 PM 36.0 °F - 32.9 °F 89% 30.17 in 2.0 mi Calm Calm - N/A   Overcast
4:35 PM 35.8 °F 33.0 °F 32.9 °F 89% 30.17 in 2.5 mi ESE 3.5 mph - N/A   Overcast
4:55 PM 35.6 °F 31.7 °F 32.5 °F 89% 30.17 in 1.5 mi East 4.6 mph - N/A   Overcast
5:15 PM 35.6 °F 32.8 °F 32.7 °F 89% 30.17 in 1.8 mi NNE 3.5 mph - N/A   Overcast
5:35 PM 35.1 °F 31.0 °F 32.4 °F 90% 30.15 in 4.0 mi ESE 4.6 mph - N/A   Overcast
5:55 PM 35.1 °F 32.2 °F 32.2 °F 89% 30.16 in 5.0 mi East 3.5 mph - N/A   Overcast
6:35 PM 35.1 °F 31.0 °F 32.2 °F 89% 30.16 in 2.5 mi ENE 4.6 mph - N/A   Overcast
6:55 PM 35.1 °F - 32.4 °F 90% 30.16 in 3.0 mi Calm Calm - N/A   Overcast
7:15 PM 35.1 °F - 32.4 °F 90% 30.16 in 2.5 mi Calm Calm - N/A   Overcast
7:35 PM 35.1 °F 31.0 °F 32.4 °F 90% 30.15 in 2.5 mi East 4.6 mph - N/A   Overcast
7:55 PM 35.1 °F 30.1 °F 32.4 °F 90% 30.15 in 3.0 mi East 5.8 mph - N/A   Overcast
8:55 PM 34.7 °F 31.8 °F 32.2 °F 91% 30.15 in 4.0 mi NE 3.5 mph - 0.01 in   Overcast
9:15 PM 34.9 °F - 32.2 °F 90% 30.15 in 4.0 mi Calm Calm - N/A   Overcast
9:35 PM 34.7 °F 31.8 °F 32.2 °F 91% 30.15 in 4.0 mi East 3.5 mph - N/A   Overcast
9:55 PM 34.7 °F - 32.2 °F 91% 30.15 in 3.0 mi Calm Calm - N/A   Overcast
10:15 PM 34.7 °F - 32.2 °F 91% 30.15 in 4.0 mi Calm Calm - N/A   Overcast
10:55 PM 35.1 °F 32.2 °F 32.5 °F 91% 30.14 in 3.0 mi East 3.5 mph - N/A   Overcast
11:15 PM 34.9 °F 32.0 °F 32.4 °F 91% 30.11 in 2.5 mi East 3.5 mph - N/A   Overcast
11:35 PM 34.7 °F 30.6 °F 32.2 °F 91% 30.10 in 3.0 mi East 4.6 mph - N/A   Overcast
11:55 PM 34.7 °F - 32.2 °F 91% 30.10 in 4.0 mi Calm Calm - N/A   Overcast